• In Uzbekistan
  • List of Countries
  • For 7 days
  • Water Temperature
  • Satellite Maps
  • Weather Map
  • Weather Widgets
  • user-avatar
    Login

    Hourly Weather Elbasan

    Today, 28 April, Friday

    Time Temperature Precipitation Wind Pressure Humidity
    00:00 +13°C° 0 mm 1 mps 735 mmHg 78%
    01:00 +13°C° 0 mm 1 mps 735 mmHg 78%
    02:00 +12°C° 0 mm 1 mps 735 mmHg 77%
    03:00 +12°C° 0 mm 1 mps 735 mmHg 76%
    04:00 +12°C° 0 mm 2 mps 734 mmHg 75%
    05:00 +15°C° 0 mm 2 mps 735 mmHg 67%
    06:00 +18°C° 0 mm 1 mps 735 mmHg 59%
    07:00 +20°C° 0 mm 1 mps 735 mmHg 52%
    08:00 +21°C° 0 mm 2 mps 735 mmHg 43%
    09:00 +24°C° 0 mm 2 mps 735 mmHg 35%
    10:00 +26°C° 0 mm 2 mps 735 mmHg 27%
    11:00 +27°C° 0 mm 3 mps 735 mmHg 27%
    12:00 +27°C° 0 mm 3 mps 735 mmHg 27%
    13:00 +28°C° 0 mm 4 mps 734 mmHg 27%
    14:00 +27°C° 0 mm 4 mps 734 mmHg 29%
    15:00 +27°C° 0 mm 4 mps 734 mmHg 31%
    16:00 +26°C° 0 mm 4 mps 733 mmHg 33%
    17:00 +22°C° 0 mm 3 mps 733 mmHg 41%
    18:00 +20°C° 0 mm 2 mps 733 mmHg 49%
    19:00 +17°C° 0 mm 2 mps 733 mmHg 56%
    20:00 +16°C° 0 mm 2 mps 733 mmHg 56%
    21:00 +16°C° 0 mm 2 mps 734 mmHg 56%
    22:00 +16°C° 0 mm 2 mps 734 mmHg 56%
    23:00 +15°C° 0 mm 2 mps 734 mmHg 56%

    Tomorrow, 29 April, Saturday

    Time Temperature Precipitation Wind Pressure Humidity
    00:00 +15°C° 0 mm 2 mps 733 mmHg 55%
    01:00 +15°C° 0 mm 2 mps 733 mmHg 55%
    02:00 +15°C° 0 mm 2 mps 733 mmHg 54%
    03:00 +15°C° 0 mm 2 mps 732 mmHg 53%
    04:00 +15°C° 0 mm 2 mps 732 mmHg 51%
    05:00 +17°C° 0 mm 2 mps 732 mmHg 49%
    06:00 +19°C° 0 mm 1 mps 732 mmHg 46%
    07:00 +20°C° 0 mm 1 mps 732 mmHg 44%
    08:00 +21°C° 0 mm 2 mps 732 mmHg 39%
    09:00 +23°C° 0 mm 2 mps 732 mmHg 35%
    10:00 +25°C° 0 mm 3 mps 732 mmHg 30%
    11:00 +25°C° 0.1 mm 3 mps 732 mmHg 34%
    12:00 +23°C° 0.1 mm 4 mps 732 mmHg 38%
    13:00 +23°C° 0.1 mm 4 mps 732 mmHg 42%
    14:00 +22°C° 0 mm 4 mps 731 mmHg 46%
    15:00 +21°C° 0 mm 3 mps 731 mmHg 51%
    16:00 +20°C° 0 mm 3 mps 731 mmHg 55%
    17:00 +19°C° 0 mm 2 mps 731 mmHg 65%
    18:00 +17°C° 0 mm 2 mps 731 mmHg 75%
    19:00 +15°C° 0 mm 2 mps 731 mmHg 86%
    20:00 +14°C° 0 mm 1 mps 731 mmHg 88%
    21:00 +14°C° 0 mm 1 mps 732 mmHg 90%
    22:00 +13°C° 0 mm 1 mps 732 mmHg 92%
    23:00 +13°C° 0 mm 1 mps 732 mmHg 92%

    Day after tomorrow, 30 April, Sunday

    Time Temperature Precipitation Wind Pressure Humidity
    00:00 +13°C° 0 mm 1 mps 731 mmHg 92%
    01:00 +13°C° 0 mm 1 mps 731 mmHg 92%
    02:00 +12°C° 0 mm 1 mps 731 mmHg 93%
    03:00 +11°C° 0 mm 1 mps 731 mmHg 93%
    04:00 +11°C° 0 mm 1 mps 731 mmHg 94%
    05:00 +13°C° 0 mm 1 mps 731 mmHg 87%
    06:00 +15°C° 0 mm 1 mps 732 mmHg 79%
    07:00 +18°C° 0 mm 1 mps 732 mmHg 71%
    08:00 +19°C° 0 mm 2 mps 732 mmHg 63%
    09:00 +21°C° 0 mm 2 mps 732 mmHg 54%
    10:00 +24°C° 0 mm 2 mps 732 mmHg 46%
    11:00 +24°C° 0 mm 2 mps 732 mmHg 45%
    12:00 +25°C° 0 mm 3 mps 732 mmHg 43%
    13:00 +26°C° 0 mm 3 mps 731 mmHg 42%
    14:00 +25°C° 0 mm 3 mps 731 mmHg 46%
    15:00 +24°C° 0 mm 3 mps 731 mmHg 50%
    16:00 +22°C° 0 mm 3 mps 731 mmHg 54%
    17:00 +19°C° 0 mm 3 mps 731 mmHg 65%
    18:00 +17°C° 0 mm 2 mps 731 mmHg 76%
    19:00 +15°C° 0 mm 2 mps 731 mmHg 86%
    20:00 +14°C° 0 mm 1 mps 731 mmHg 87%
    21:00 +14°C° 0 mm 1 mps 732 mmHg 88%
    22:00 +14°C° 0 mm 1 mps 732 mmHg 89%
    23:00 +14°C° 0 mm 1 mps 732 mmHg 90%

    1 May, Monday

    Time Temperature Precipitation Wind Pressure Humidity
    00:00 +13°C° 0 mm 1 mps 732 mmHg 90%
    01:00 +13°C° 0 mm 1 mps 732 mmHg 91%
    02:00 +13°C° 0 mm 1 mps 732 mmHg 91%
    03:00 +12°C° 0 mm 1 mps 732 mmHg 91%
    04:00 +12°C° 0 mm 1 mps 732 mmHg 91%
    05:00 +14°C° 0 mm 1 mps 732 mmHg 84%
    06:00 +16°C° 0 mm 1 mps 732 mmHg 76%
    07:00 +19°C° 0 mm 1 mps 732 mmHg 68%
    08:00 +21°C° 0 mm 1 mps 732 mmHg 61%
    09:00 +23°C° 0 mm 1 mps 733 mmHg 54%
    10:00 +25°C° 0 mm 2 mps 733 mmHg 47%
    11:00 +25°C° 0.4 mm 2 mps 733 mmHg 48%
    12:00 +25°C° 0.4 mm 2 mps 732 mmHg 50%
    13:00 +25°C° 0.4 mm 3 mps 732 mmHg 52%
    14:00 +24°C° 0.4 mm 3 mps 732 mmHg 55%
    15:00 +24°C° 0.4 mm 2 mps 732 mmHg 58%
    16:00 +23°C° 0.4 mm 2 mps 732 mmHg 61%
    17:00 +20°C° 0.2 mm 2 mps 732 mmHg 71%
    18:00 +18°C° 0.2 mm 1 mps 732 mmHg 81%
    19:00 +15°C° 0.2 mm 1 mps 732 mmHg 91%
    20:00 +14°C° 0 mm 1 mps 732 mmHg 91%
    21:00 +13°C° 0 mm 0 mps 732 mmHg 92%
    22:00 +12°C° 0 mm 0 mps 732 mmHg 92%
    23:00 +12°C° 0 mm 0 mps 732 mmHg 92%

    2 May, Tuesday

    Time Temperature Precipitation Wind Pressure Humidity
    00:00 +12°C° 0 mm 0 mps 732 mmHg 93%
    01:00 +11°C° 0 mm 0 mps 732 mmHg 93%
    02:00 +11°C° 0 mm 0 mps 732 mmHg 93%
    03:00 +11°C° 0 mm 0 mps 732 mmHg 93%
    04:00 +10°C° 0 mm 0 mps 732 mmHg 94%
    05:00 +13°C° 0 mm 0 mps 732 mmHg 87%
    06:00 +15°C° 0 mm 0 mps 732 mmHg 79%
    07:00 +18°C° 0 mm 0 mps 732 mmHg 72%
    08:00 +20°C° 0 mm 0 mps 732 mmHg 64%
    09:00 +23°C° 0 mm 1 mps 733 mmHg 57%
    10:00 +25°C° 0 mm 2 mps 733 mmHg 49%
    11:00 +25°C° 0 mm 2 mps 732 mmHg 47%
    12:00 +25°C° 0 mm 3 mps 732 mmHg 46%
    13:00 +26°C° 0 mm 3 mps 732 mmHg 44%
    14:00 +25°C° 0.1 mm 3 mps 732 mmHg 47%
    15:00 +24°C° 0.1 mm 3 mps 732 mmHg 50%
    16:00 +22°C° 0.1 mm 3 mps 732 mmHg 53%
    17:00 +20°C° 0 mm 2 mps 732 mmHg 63%
    18:00 +17°C° 0 mm 2 mps 732 mmHg 72%
    19:00 +15°C° 0 mm 1 mps 732 mmHg 82%
    20:00 +14°C° 0 mm 1 mps 732 mmHg 83%
    21:00 +12°C° 0 mm 0 mps 732 mmHg 85%
    22:00 +12°C° 0 mm 0 mps 733 mmHg 86%
    23:00 +11°C° 0 mm 0 mps 733 mmHg 87%

    3 May, Wednesday

    Time Temperature Precipitation Wind Pressure Humidity
    00:00 +11°C° 0 mm 0 mps 732 mmHg 88%
    01:00 +10°C° 0 mm 0 mps 732 mmHg 89%
    02:00 +10°C° 0 mm 0 mps 732 mmHg 89%
    03:00 +10°C° 0 mm 0 mps 732 mmHg 89%
    04:00 +9°C° 0 mm 0 mps 732 mmHg 89%
    05:00 +12°C° 0 mm 0 mps 733 mmHg 80%
    06:00 +15°C° 0 mm 0 mps 733 mmHg 71%
    07:00 +17°C° 0 mm 0 mps 733 mmHg 62%
    08:00 +21°C° 0 mm 1 mps 733 mmHg 55%
    09:00 +22°C° 0 mm 1 mps 733 mmHg 48%
    10:00 +23°C° 0 mm 2 mps 733 mmHg 41%
    11:00 +24°C° 0 mm 2 mps 733 mmHg 40%
    12:00 +24°C° 0 mm 3 mps 733 mmHg 39%
    13:00 +25°C° 0 mm 3 mps 733 mmHg 38%
    14:00 +24°C° 0 mm 3 mps 733 mmHg 41%
    15:00 +22°C° 0 mm 3 mps 733 mmHg 45%
    16:00 +22°C° 0 mm 4 mps 733 mmHg 49%
    17:00 +19°C° 0 mm 3 mps 733 mmHg 61%
    18:00 +17°C° 0 mm 2 mps 733 mmHg 73%
    19:00 +14°C° 0 mm 2 mps 733 mmHg 86%
    20:00 +13°C° 0 mm 1 mps 733 mmHg 88%
    21:00 +13°C° 0 mm 1 mps 733 mmHg 90%
    22:00 +12°C° 0 mm 1 mps 733 mmHg 92%
    23:00 +10°C° 0 mm 0 mps 733 mmHg 92%
    Show more